Current Version              Previous Version:    01  02  03  04  05  06  07  08  09  10  11  12  13  14  15  16  17  18  19  20  21  22  23  24  25  26  27  28  29  30  
   31  32  33  34  35  36  37  38  39  40  41  42  43  44  45  46  47  48  49  50  51  52  53  54  55  56  57  58  59  60  

[Printable]
457
ASUS44 KEWX 021002
RWRTX
SOUTH TEXAS REGIONAL WEATHER ROUNDUP
NATIONAL WEATHER SERVICE AUSTIN/SAN ANTONIO TX
500 AM CDT TUE SEP 02 2014

NOTE: "FAIR" INDICATED FEW OR NO CLOUDS BELOW 12,000 FEET WITH NO
SIGNIFICANT WEATHER AND/OR OBSTRUCTIONS TO VISIBILITY.

* - THESE STATIONS ARE NOT NWS OR FAA STATIONS...AND ARE NOT SUBJECT
    TO NWS AND FAA QUALITY CONTROL.

TXZ171-172-183>190-021100-
TEXAS HILL COUNTRY AND EDWARDS PLATEAU

CITY           SKY/WX    TMP DP  RH WIND       PRES   REMARKS
JUNCTION       CLEAR     76  69  79 S7        29.95R
*LLANO         MOCLDY    79  70  73 SE5       29.96S
BURNET         PTCLDY    76  71  85 S8G18     29.96S
*HORSESHOE BAY CLEAR     76  70  80 S5        29.94S
*KERRVILLE     CLOUDY    76  73  87 SE9       29.96F
*FREDERICKSBRG MOCLDY    75  70  84 S9        29.97S
*ROCKSPRINGS   CLEAR     73  70  88 SE13      29.99S
*BOERNE STAGE  PTCLDY    75  70  83 S7        29.97R
*CASTROVILLE   PTCLDY    79  72  79 SE6       29.94S
HONDO          CLOUDY    79  74  84 SE14      29.94S
*UVALDE        MOCLDY    78  73  83 E7        29.93S
DEL RIO        CLEAR     82  71  69 SE10      29.88R
LAUGHLIN AFB   NOT AVBL
CARRIZO SPRGS  PTCLDY    79  72  78 SE7       29.88R
$$

TXZ173-191>194-202-209-217>225-228-021100-
CENTRAL AND SOUTH CENTRAL TEXAS

CITY           SKY/WX    TMP DP  RH WIND       PRES   REMARKS
GEORGETOWN     PTCLDY    79  73  83 S9        29.94F
AUSTIN/BERGSTM PTCLDY    76  74  93 S5        29.93S
AUSTIN/MABRY   MOCLDY    79  75  87 VRB3      29.93F
*AUSTIN/EXEC   MOCLDY    77  75  94 S5        29.94S
*LAGO VISTA    PTCLDY    77  72  82 S8        29.96S
SAN MARCOS     MOCLDY    79  72  78 S5        29.95S
NEW BRAUNFELS  MOCLDY    78  74  87 CALM      29.92S
RANDOLPH AFB   MOCLDY    78  74  88 SE6       29.94S
PT SAN ANTONIO MOCLDY    79  74  85 SE6       29.92R
SAN ANTONIO    NOT AVBL
STINSON FIELD  MOCLDY    80  75  84 SE7       29.91S
*PLEASANTON    PTCLDY    78  74  87 E3        29.91S
*LA GRANGE     PTCLDY    77  76  95 CALM      29.91S
*GIDDINGS      CLOUDY    76  74  92 CALM      29.97S
*GONZALES      CLOUDY    79  77  95 CALM      29.91S
$$

TXZ163>164-176>182-195>201-210>213-226-227-235-021100-
SOUTHEAST TEXAS

CITY           SKY/WX    TMP DP  RH WIND       PRES   REMARKS
COLLEGE STN    MOCLDY    77  75  93 SE3       29.93F
*BRYAN         CLOUDY   N/A N/A N/A SE5       29.93S
*CALDWELL      MOCLDY    77  77 100 S5        29.97S
*CROCKETT      PTCLDY    81  79  94 S5        29.98R
*BRENHAM       PTCLDY    77  76  95 CALM      29.94S FOG
HUNTSVILLE     CLEAR     78  76  93 S5        29.94F
CONROE         PTCLDY    75  74  96 SE3       29.95S
HOUSTON BUSH   PTCLDY    79  77  94 CALM      29.93F
HOUSTON HOBBY  PTCLDY    79  76  90 CALM      29.92F
*HOUSTON SW AP CLEAR    N/A N/A N/A CALM      29.93F
PEARLAND       CLEAR     79  75  87 E3        29.94F
HOUSTON HOOKS  CLEAR     78  76  93 CALM      29.94S
ELLINGTON FLD  NOT AVBL
SUGAR LAND     CLEAR     80  77  90 SE6       29.92S
*HOUSTON EXEC  CLEAR     77  77 100 E3        29.94S
*CLEVELAND MUN FOG       75  74  98 CALM      29.95F VSB 3/4
*WHARTON       CLEAR     76  75  95 E3        29.92F
$$

TXZ214>216-236>238-021100-
THE UPPER TEXAS COAST

CITY           SKY/WX    TMP DP  RH WIND       PRES   REMARKS
*ORANGE        CLEAR     80  80 100 SE3       29.97F
PORT ARTHUR    CLEAR     79  76  90 SE5       29.95S
GALVESTON      PTCLDY    84  77  79 S14       29.94S HX  94
ANGLETON       PTCLDY    79  76  90 SE5       29.92S
*BAY CITY      PTCLDY    80  80 100 E5        29.92S
PALACIOS       CLEAR     82  76  81 SE12      29.90S
$$

TXZ229>234-239>247-021100-
TEXAS COASTAL BEND AND RIO GRANDE PLAINS

CITY           SKY/WX    TMP DP  RH WIND       PRES   REMARKS
VICTORIA       CLEAR     80  78  94 SE6       29.90F
*BEEVILLE      CLEAR     77  77 100 NE3       29.90R
ROCKPORT       PTCLDY    83  77  82 SE14      29.88S HX  92
*PORT ARANSAS  PTCLDY    83  76  79 SE12G18   29.88S HX  92
*PORT LAVACA   CLEAR     79  76  91 SE3       29.90S
*INGLESIDE     PTCLDY    83  77  81 SE12G17   29.88R HX  92
CORPUS CHRISTI PTCLDY    80  77  90 SE7       29.87S
CORPUS NAS     PTCLDY    84  78  82 SE12      29.87S HX  95
*ROBSTOWN      CLEAR     80  77  91 E3        29.88S
ALICE          MOCLDY    77  75  93 NE3       29.88R
KINGSVILLE NAS CLEAR     80  78  94 SE5       29.87S
COTULLA        PTCLDY    79  74  84 SE7       29.89S
*FAITH RANCH   CLEAR     81  73  78 SE10      29.89R
LAREDO         MOCLDY    82  74  77 SE9       29.91R
$$

TXZ248>255-021100-
DEEP SOUTH TEXAS

CITY           SKY/WX    TMP DP  RH WIND       PRES   REMARKS
BROWNSVILLE    CLEAR     80  77  90 E6        29.84F
PORT ISABEL    CLEAR     84  77  79 SE10      29.84S HX  94
*SOUTH PADRE     N/A     82  79  89 SE13      29.84S HX  93
HARLINGEN      CLEAR     79  77  94 E6        29.83F
*HEBBRONVILLE  MOCLDY    79  76  90 SE9       29.89S
MCALLEN        CLEAR     79  77  94 E3        29.85S
*WESLACO       NOT AVBL
FALFURRIAS     PTCLDY    69  67  92 CALM      29.87R
EDINBURG       CLEAR     80  76  87 CALM      29.85S
*ZAPATA        MOCLDY    80  74  81 SE5       29.86S
$$

TXZ213>215-236>238-242>244-246-247-251-254-255-021100-
CMAN STATIONS

STATION/POSITION TIME  TEMP    WIND        PRES    WAVE
                       AIR SEA DIR/SP/G            HT/PER
                 (UTC) (F)     (DEG/KT/KT) (MB)    (FT/S)
SABINE PASS      0900   83 85  190/  8/ 10 1014.3
SEA RIM ST PARK  0900   83     170/ 11/ 14 1014.8
NORTH JETTY/GLS  0900   84 84  190/ 15/ 18   N/A
EAGLE POINT      0900   84 84  180/ 10/ 12 1013.6
MORGANS POINT    0900   84     160/  7/ 10 1013.6
MISSION/ARANSAS  0900   82     140/ 14     1013.0
PORT O`CONNOR    0900          120/ 16/ 21   N/A
PORT ARANSAS     0900   84 85  130/ 15/ 17 1012.2
MALAQUITE BEACH  0900   84 85  130/ 14/ 17 1010.8
BAFFIN BAY       0900   83 83  140/ 11/ 15 1011.2
PORT ISABEL      0900   83 84  100/  6/  8 1010.9
$$

GMZ080-GMZ150>470-021100-
OFFSHORE BUOY REPORTS

STATION/POSITION TIME  TEMP    WIND        PRES    WAVE
                       AIR SEA DIR/SP/G            HT/PER
                 (UTC) (F)     (DEG/KT/KT) (MB)    (FT/S)
20 E GALVESTON   1000   84 85  170/ 14/ 16 1013.3    4/ 5
90 E PT ARANSAS  1000   85 85  140/ 19/ 21 1012.4    5/ 5
35 NE PT MANSFLD 0900   84 85  130/ 17/ 21 1010.5    4/ 7
200 E PT ISABEL  0900   83 85  150/ 17/ 21 1012.4    7/ 8
$$